OBJECT M, 61905

Orbit data source: Space-Track

You're viewing an Uncataloged Satellite

Recently launched and/or uncataloged satellites may have evolving metadata. Metadata may include but not limited to: Owner, Maufacturer, Bus, Motor, and Mission.

OBJECT M, 61905 is a Chinese satellite in SSO that was launched on Wed, 13 Nov 2024 UTC via a LIJIAN-1 launch vehicle from the Jiuquan Satellite Launch Center, China (JSC). Unknown objects in Earth's orbit typically refer to objects detected orbiting the Earth but have not yet been identified or cataloged. These objects could be anything from previously untracked satellites, spent rocket stages, debris from satellite collisions, or even natural meteoroids temporarily captured by Earth's gravity.

Loading next visibility...
OBJECT M details
Identifier
61905, 2024-205M
Orbit
SSO
Last TLE update11 hours ago
Origin
Flag of CNZHWK/ZXHK (CN / PRC)
ManufacturerXIOPM/ZXHK
MissionOperational spacecraft
Bus & MotorMN100?, Unknown motor
Mass75 kg wet, 75 kg dry
Launch date (UTC)
2024-11-13 (1 month ago)
Launch vehicle
LIJIAN-1
Launch site
Jiuquan Satellite Launch Center, China (JSC)
Object typeUnknown
Shape & HBRUnknown
Radar Cross SectionMedium (>0.1 m² and <1 m²)

Expand to show TLE details & history

TLE from 11 hours ago
0 OBJECT M
1 61905U 24205M   24348.44635408  .00007862  00000-0  42029-3 0  9992
2 61905  97.4753  60.0827 0015041 170.2922 189.8604 15.15256634  4856
Epoch: 2024-12-13T10:42Z
Definitive object data (Epoch: 2024-12-13T10:42:44.992Z)
Latitude-0.00002°
Longitude176.78302°
Altitude533.507 km
Speed7.59 km/s
True Right ascension04h 00m 19s
True Declination0° 00' 00"
Sunlit
Object was in full shadow at TLE epoch
Visualization TLE readout
Latitude-3.6579°
Longitude177.71501°
Altitude534.09 km
Speed7.59 km/s
Apparent Right ascension05h 47m 33s
Apparent Declination-24° 07' 09"
Sunlit
Object is in full shadow
Visualization observer readout
Local Sidereal Time20:19:13
Azimuth75.162° E
Elevation-54.533°
Doppler factor1
Orbital elements
Apogee altitude527.546 km
Perigee altitude506.803 km
Semi-major axis6,895.312 km
Eccentricity0.0015041
Inclination97.4753°
RAAN60.0827°
Arg. of periapsis170.2922°
True anomaly189.83094°
Mean anomaly189.8604°
Eccentric anomaly189.84566°
Mean motion3.79064 °/min
BSTAR0.00042029
Orbital period94.97 mins
Loading maneuver chart data...
Loading historical data...
Loading historical data...
Loading historical data...
Loading historical data...
Loading historical data...
Loading historical data...
Loading historical data...

OBJECT M Visibility forecast

Observer location: undefined°, undefined

Span
Click to sort rows by Start time (UTC) header in descending order
Start Az.
Max El. time (UTC)
Max El. Az.
Max El.
End time (UTC)
End Az.
5 mins2024-12-14 04:17:26.095Z120.247° SE2024-12-14 04:20:26.095Z60.568° ENE21.914°2024-12-14 04:22:26.095Z22.934° NE
4 mins2024-12-14 05:52:26.095Z229.922° WSW2024-12-14 05:54:26.095Z272.017° WNW19.767°2024-12-14 05:56:26.095Z308.794° NW
5 mins2024-12-14 17:24:26.095Z40.361° NE2024-12-14 17:26:26.095Z89.257° E30.282°2024-12-14 17:29:26.095Z161.426° S
|